Time,TemperatureF,DewpointF,PressureIn,WindDirection,WindDirectionDegrees,WindSpeedMPH,WindSpeedGustMPH,Humidity,HourlyPrecipIn,Conditions,Clouds,dailyrainin,SoftwareType,DateUTC
2013-01-11 00:02:00,45.9,32.0,30.25,SSE,160,0.0,8.0,58,0.00,,,0.00,meteohub,2013-01-11 08:02:00,
2013-01-11 00:07:00,45.7,31.8,30.24,ENE,63,2.0,8.0,58,0.00,,,0.00,meteohub,2013-01-11 08:07:00,
2013-01-11 00:12:00,45.7,31.8,30.24,ENE,75,1.0,4.0,58,0.00,,,0.00,meteohub,2013-01-11 08:12:00,
2013-01-11 00:17:00,45.7,31.8,30.24,WNW,290,4.0,4.0,58,0.00,,,0.00,meteohub,2013-01-11 08:17:00,
2013-01-11 00:22:00,45.9,32.0,30.24,WNW,288,0.0,6.0,58,0.00,,,0.00,meteohub,2013-01-11 08:22:00,
2013-01-11 00:27:00,45.9,32.0,30.24,SW,220,3.0,6.0,58,0.00,,,0.00,meteohub,2013-01-11 08:27:00,
2013-01-11 00:32:00,45.5,32.4,30.23,WSW,248,1.0,6.0,60,0.00,,,0.00,meteohub,2013-01-11 08:32:00,
2013-01-11 00:37:00,45.3,33.1,30.24,West,272,2.0,4.0,62,0.00,,,0.00,meteohub,2013-01-11 08:37:00,
2013-01-11 00:42:00,45.1,32.9,30.23,WNW,288,4.0,4.0,62,0.00,,,0.00,meteohub,2013-01-11 08:42:00,
2013-01-11 00:47:00,45.1,33.3,30.23,WSW,248,2.0,6.0,63,0.00,,,0.00,meteohub,2013-01-11 08:47:00,
2013-01-11 00:52:00,45.1,33.3,30.23,WNW,285,3.0,6.0,63,0.00,,,0.00,meteohub,2013-01-11 08:52:00,
2013-01-11 00:57:00,45.1,33.3,30.23,WSW,238,1.0,6.0,63,0.00,,,0.00,meteohub,2013-01-11 08:57:00,
2013-01-11 01:02:00,45.1,33.6,30.23,West,273,1.0,6.0,64,0.00,,,0.00,meteohub,2013-01-11 09:02:00,
2013-01-11 01:07:00,45.0,33.1,30.23,NNW,338,3.0,6.0,63,0.00,,,0.00,meteohub,2013-01-11 09:07:00,
2013-01-11 01:12:00,45.3,32.7,30.23,WSW,258,0.0,9.0,61,0.00,,,0.00,meteohub,2013-01-11 09:12:00,
2013-01-11 01:17:00,45.7,32.2,30.23,WSW,258,0.0,9.0,59,0.00,,,0.00,meteohub,2013-01-11 09:17:00,
2013-01-11 01:22:00,45.7,32.2,30.23,North,-999,-999.0,9.0,59,0.00,,,0.00,meteohub,2013-01-11 09:22:00,
2013-01-11 01:27:00,45.9,32.4,30.23,NE,38,3.0,6.0,59,0.00,,,0.00,meteohub,2013-01-11 09:27:00,
2013-01-11 01:32:00,45.9,32.4,30.23,ESE,107,2.0,7.0,59,0.00,,,0.00,meteohub,2013-01-11 09:32:00,
2013-01-11 01:37:00,45.9,32.7,30.24,WNW,290,4.0,7.0,60,0.00,,,0.00,meteohub,2013-01-11 09:37:00,
2013-01-11 01:42:00,45.9,32.7,30.23,SE,146,2.0,7.0,60,0.00,,,0.00,meteohub,2013-01-11 09:42:00,
2013-01-11 01:47:00,45.7,33.1,30.23,NNE,27,0.0,6.0,61,0.00,,,0.00,meteohub,2013-01-11 09:47:00,
2013-01-11 01:52:00,45.5,32.9,30.24,South,177,1.0,6.0,61,0.00,,,0.00,meteohub,2013-01-11 09:52:00,
2013-01-11 01:57:00,45.3,32.7,30.24,SE,142,1.0,5.0,61,0.00,,,0.00,meteohub,2013-01-11 09:57:00,
2013-01-11 02:02:00,45.1,32.5,30.24,WNW,292,0.0,5.0,61,0.00,,,0.00,meteohub,2013-01-11 10:02:00,
2013-01-11 02:07:00,45.0,32.7,30.24,ENE,77,1.0,3.0,62,0.00,,,0.00,meteohub,2013-01-11 10:07:00,
2013-01-11 02:12:00,45.0,32.7,30.24,NNE,20,0.0,3.0,62,0.00,,,0.00,meteohub,2013-01-11 10:12:00,
2013-01-11 02:17:00,45.0,32.4,30.24,NNW,348,2.0,3.0,61,0.00,,,0.00,meteohub,2013-01-11 10:17:00,
2013-01-11 02:22:00,45.3,31.8,30.24,SW,236,1.0,6.0,59,0.00,,,0.00,meteohub,2013-01-11 10:22:00,
2013-01-11 02:27:00,45.7,32.2,30.24,ENE,63,8.0,8.0,59,0.00,,,0.00,meteohub,2013-01-11 10:27:00,
2013-01-11 02:32:00,45.7,31.8,30.24,West,278,0.0,10.0,58,0.00,,,0.00,meteohub,2013-01-11 10:32:00,
2013-01-11 02:37:00,45.7,31.8,30.24,South,178,0.0,10.0,58,0.00,,,0.00,meteohub,2013-01-11 10:37:00,
2013-01-11 02:42:00,45.3,31.5,30.24,NW,325,0.0,8.0,58,0.00,,,0.00,meteohub,2013-01-11 10:42:00,
2013-01-11 02:47:00,45.7,31.8,30.24,West,273,2.0,8.0,58,0.00,,,0.00,meteohub,2013-01-11 10:47:00,
2013-01-11 02:52:00,45.9,31.5,30.24,West,272,4.0,8.0,57,0.00,,,0.00,meteohub,2013-01-11 10:52:00,
2013-01-11 02:57:00,46.0,31.3,30.25,WNW,290,7.0,9.0,56,0.00,,,0.00,meteohub,2013-01-11 10:57:00,
2013-01-11 03:02:00,46.0,31.3,30.24,SW,221,1.0,9.0,56,0.00,,,0.00,meteohub,2013-01-11 11:02:00,
2013-01-11 03:07:00,45.9,31.5,30.24,NE,44,1.0,8.0,57,0.00,,,0.00,meteohub,2013-01-11 11:07:00,
2013-01-11 03:12:00,45.7,31.8,30.24,SW,227,2.0,7.0,58,0.00,,,0.00,meteohub,2013-01-11 11:12:00,
2013-01-11 03:17:00,45.5,32.0,30.24,SSW,209,0.0,7.0,59,0.00,,,0.00,meteohub,2013-01-11 11:17:00,
2013-01-11 03:22:00,45.3,31.8,30.24,NW,315,4.0,4.0,59,0.00,,,0.00,meteohub,2013-01-11 11:22:00,
2013-01-11 03:27:00,45.3,31.8,30.24,SW,226,0.0,9.0,59,0.00,,,0.00,meteohub,2013-01-11 11:27:00,
2013-01-11 03:32:00,45.1,32.0,30.24,SE,138,1.0,9.0,60,0.00,,,0.00,meteohub,2013-01-11 11:32:00,
2013-01-11 03:37:00,45.0,32.0,30.24,West,275,1.0,9.0,60,0.00,,,0.00,meteohub,2013-01-11 11:37:00,
2013-01-11 03:42:00,45.1,32.0,30.24,SE,136,2.0,3.0,60,0.00,,,0.00,meteohub,2013-01-11 11:42:00,
2013-01-11 03:47:00,45.1,32.0,30.24,SW,226,1.0,4.0,60,0.00,,,0.00,meteohub,2013-01-11 11:47:00,
2013-01-11 03:52:00,45.1,32.0,30.25,ENE,72,3.0,8.0,60,0.00,,,0.00,meteohub,2013-01-11 11:52:00,
2013-01-11 03:57:00,45.1,32.0,30.24,WNW,296,2.0,8.0,60,0.00,,,0.00,meteohub,2013-01-11 11:57:00,
2013-01-11 04:02:00,45.1,32.0,30.25,ESE,102,0.0,4.0,60,0.00,,,0.00,meteohub,2013-01-11 12:02:00,
2013-01-11 04:07:00,45.1,31.6,30.24,NW,311,3.0,4.0,59,0.00,,,0.00,meteohub,2013-01-11 12:07:00,
2013-01-11 04:12:00,45.3,31.8,30.24,NW,309,1.0,7.0,59,0.00,,,0.00,meteohub,2013-01-11 12:12:00,
2013-01-11 04:17:00,45.1,31.6,30.24,WSW,244,1.0,7.0,59,0.00,,,0.00,meteohub,2013-01-11 12:17:00,
2013-01-11 04:22:00,45.3,31.8,30.24,SW,217,1.0,7.0,59,0.00,,,0.00,meteohub,2013-01-11 12:22:00,
2013-01-11 04:27:00,45.1,31.3,30.24,NNE,17,4.0,6.0,58,0.00,,,0.00,meteohub,2013-01-11 12:27:00,
2013-01-11 04:32:00,45.3,31.5,30.24,NNW,337,0.0,6.0,58,0.00,,,0.00,meteohub,2013-01-11 12:32:00,
2013-01-11 04:37:00,45.1,31.3,30.24,ESE,111,1.0,6.0,58,0.00,,,0.00,meteohub,2013-01-11 12:37:00,
2013-01-11 04:42:00,45.0,31.5,30.24,ESE,114,1.0,7.0,59,0.00,,,0.00,meteohub,2013-01-11 12:42:00,
2013-01-11 04:47:00,45.0,31.5,30.24,ENE,58,1.0,7.0,59,0.00,,,0.00,meteohub,2013-01-11 12:47:00,
2013-01-11 04:52:00,45.0,31.5,30.24,ENE,77,0.0,7.0,59,0.00,,,0.00,meteohub,2013-01-11 12:52:00,
2013-01-11 05:02:00,45.1,31.3,30.25,NNE,13,1.0,7.0,58,0.00,,,0.00,meteohub,2013-01-11 13:02:00,
2013-01-11 05:07:00,45.1,31.6,30.25,NNE,24,3.0,8.0,59,0.00,,,0.00,meteohub,2013-01-11 13:07:00,
2013-01-11 05:12:00,45.1,31.6,30.25,NE,47,1.0,8.0,59,0.00,,,0.00,meteohub,2013-01-11 13:12:00,
2013-01-11 05:17:00,45.1,31.3,30.25,ESE,120,0.0,8.0,58,0.00,,,0.00,meteohub,2013-01-11 13:17:00,
2013-01-11 05:22:00,45.1,31.3,30.25,ESE,104,1.0,5.0,58,0.00,,,0.00,meteohub,2013-01-11 13:22:00,
2013-01-11 05:27:00,45.1,31.3,30.25,ENE,65,2.0,4.0,58,0.00,,,0.00,meteohub,2013-01-11 13:27:00,
2013-01-11 05:32:00,45.1,31.6,30.25,ESE,112,1.0,3.0,59,0.00,,,0.00,meteohub,2013-01-11 13:32:00,
2013-01-11 05:37:00,45.1,32.0,30.25,NE,54,2.0,3.0,60,0.00,,,0.00,meteohub,2013-01-11 13:37:00,
2013-01-11 05:42:00,45.0,32.0,30.25,West,275,0.0,3.0,60,0.00,,,0.00,meteohub,2013-01-11 13:42:00,
2013-01-11 05:47:00,45.0,32.0,30.25,SW,219,1.0,3.0,60,0.00,,,0.00,meteohub,2013-01-11 13:47:00,
2013-01-11 05:52:00,45.0,32.0,30.26,SE,135,0.0,3.0,60,0.00,,,0.00,meteohub,2013-01-11 13:52:00,
2013-01-11 05:57:00,44.8,33.8,30.26,East,95,1.0,4.0,65,0.00,,,0.00,meteohub,2013-01-11 13:57:00,
2013-01-11 06:02:00,44.2,34.0,30.26,SE,129,1.0,4.0,67,0.00,,,0.00,meteohub,2013-01-11 14:02:00,
2013-01-11 06:07:00,44.1,34.5,30.26,East,86,0.0,6.0,69,0.00,,,0.00,meteohub,2013-01-11 14:07:00,
2013-01-11 06:12:00,43.9,34.7,30.26,SSW,206,0.0,6.0,70,0.00,,,0.00,meteohub,2013-01-11 14:12:00,
2013-01-11 06:17:00,43.5,34.7,30.26,ESE,122,0.0,5.0,71,0.00,,,0.00,meteohub,2013-01-11 14:17:00,
2013-01-11 06:22:00,43.3,34.9,30.26,ENE,72,3.0,5.0,72,0.00,,,0.00,meteohub,2013-01-11 14:22:00,
2013-01-11 06:27:00,43.3,35.2,30.27,SE,133,3.0,5.0,73,0.00,,,0.00,meteohub,2013-01-11 14:27:00,
2013-01-11 06:32:00,43.3,34.9,30.27,ENE,78,2.0,7.0,72,0.00,,,0.00,meteohub,2013-01-11 14:32:00,
2013-01-11 06:37:00,43.3,34.9,30.27,ESE,111,2.0,7.0,72,0.00,,,0.00,meteohub,2013-01-11 14:37:00,
2013-01-11 06:42:00,43.2,34.7,30.27,NE,36,1.0,7.0,72,0.00,,,0.00,meteohub,2013-01-11 14:42:00,
2013-01-11 06:47:00,43.2,34.7,30.27,NE,41,1.0,5.0,72,0.00,,,0.00,meteohub,2013-01-11 14:47:00,
2013-01-11 06:52:00,43.0,34.5,30.27,NW,319,1.0,5.0,72,0.00,,,0.00,meteohub,2013-01-11 14:52:00,
2013-01-11 06:57:00,43.0,34.2,30.27,East,101,1.0,3.0,71,0.00,,,0.00,meteohub,2013-01-11 14:57:00,
2013-01-11 07:02:00,43.0,34.2,30.27,ENE,77,1.0,5.0,71,0.00,,,0.00,meteohub,2013-01-11 15:02:00,
2013-01-11 07:07:00,43.0,34.2,30.27,East,99,0.0,5.0,71,0.00,,,0.00,meteohub,2013-01-11 15:07:00,
2013-01-11 07:12:00,43.0,34.5,30.28,SE,128,0.0,5.0,72,0.00,,,0.00,meteohub,2013-01-11 15:12:00,
2013-01-11 07:17:00,43.0,34.5,30.27,NNE,24,0.0,4.0,72,0.00,,,0.00,meteohub,2013-01-11 15:17:00,
2013-01-11 07:22:00,43.0,34.5,30.27,North,350,0.0,4.0,72,0.00,,,0.00,meteohub,2013-01-11 15:22:00,
2013-01-11 07:27:00,43.0,34.5,30.28,SE,136,0.0,4.0,72,0.00,,,0.00,meteohub,2013-01-11 15:27:00,
2013-01-11 07:32:00,43.0,34.5,30.28,NNE,20,1.0,3.0,72,0.00,,,0.00,meteohub,2013-01-11 15:32:00,
2013-01-11 07:37:00,43.0,34.5,30.28,NNW,330,0.0,2.0,72,0.00,,,0.00,meteohub,2013-01-11 15:37:00,
2013-01-11 07:42:00,43.2,34.7,30.28,SW,222,1.0,2.0,72,0.00,,,0.00,meteohub,2013-01-11 15:42:00,
2013-01-11 07:47:00,43.2,34.7,30.28,WNW,303,1.0,2.0,72,0.00,,,0.00,meteohub,2013-01-11 15:47:00,
2013-01-11 07:52:00,43.5,34.7,30.28,West,264,1.0,3.0,71,0.00,,,0.00,meteohub,2013-01-11 15:52:00,
2013-01-11 07:57:00,43.9,34.7,30.29,WNW,283,1.0,4.0,70,0.00,,,0.00,meteohub,2013-01-11 15:57:00,
2013-01-11 08:02:00,44.2,35.1,30.29,WSW,250,0.0,4.0,70,0.00,,,0.00,meteohub,2013-01-11 16:02:00,
2013-01-11 08:07:00,44.4,35.2,30.29,NW,314,1.0,4.0,70,0.00,,,0.00,meteohub,2013-01-11 16:07:00,
2013-01-11 08:12:00,44.8,35.6,30.29,South,190,1.0,3.0,70,0.00,,,0.00,meteohub,2013-01-11 16:12:00,
2013-01-11 08:17:00,45.0,36.1,30.29,SSW,211,1.0,2.0,71,0.00,,,0.00,meteohub,2013-01-11 16:17:00,
2013-01-11 08:22:00,45.0,36.1,30.29,SSW,205,1.0,2.0,71,0.00,,,0.00,meteohub,2013-01-11 16:22:00,
2013-01-11 08:27:00,45.1,36.3,30.29,East,84,2.0,2.0,71,0.00,,,0.00,meteohub,2013-01-11 16:27:00,
2013-01-11 08:32:00,45.3,36.1,30.29,SE,142,1.0,2.0,70,0.00,,,0.00,meteohub,2013-01-11 16:32:00,
2013-01-11 08:37:00,45.3,35.8,30.29,NNE,15,0.0,3.0,69,0.00,,,0.00,meteohub,2013-01-11 16:37:00,
2013-01-11 08:42:00,45.3,36.1,30.29,North,355,1.0,3.0,70,0.00,,,0.00,meteohub,2013-01-11 16:42:00,
2013-01-11 08:47:00,45.1,35.6,30.29,NW,320,0.0,3.0,69,0.00,,,0.00,meteohub,2013-01-11 16:47:00,
2013-01-11 08:52:00,45.1,35.6,30.30,SSE,147,1.0,3.0,69,0.00,,,0.00,meteohub,2013-01-11 16:52:00,
2013-01-11 08:57:00,45.1,35.6,30.29,NNE,30,0.0,3.0,69,0.00,,,0.00,meteohub,2013-01-11 16:57:00,
2013-01-11 09:02:00,45.3,35.8,30.29,East,88,1.0,2.0,69,0.00,,,0.00,meteohub,2013-01-11 17:02:00,
2013-01-11 09:07:00,45.3,35.4,30.30,East,93,0.0,2.0,68,0.00,,,0.00,meteohub,2013-01-11 17:07:00,
2013-01-11 09:12:00,45.3,35.4,30.29,South,186,1.0,1.0,68,0.00,,,0.00,meteohub,2013-01-11 17:12:00,
2013-01-11 09:17:00,45.5,35.6,30.30,SW,222,2.0,4.0,68,0.00,,,0.00,meteohub,2013-01-11 17:17:00,
2013-01-11 09:22:00,45.5,35.6,30.29,SE,145,1.0,4.0,68,0.00,,,0.00,meteohub,2013-01-11 17:22:00,
2013-01-11 09:27:00,45.7,35.8,30.29,ESE,122,0.0,4.0,68,0.00,,,0.00,meteohub,2013-01-11 17:27:00,
2013-01-11 09:32:00,45.7,35.8,30.29,ESE,113,1.0,4.0,68,0.00,,,0.00,meteohub,2013-01-11 17:32:00,
2013-01-11 09:37:00,45.7,36.1,30.29,SE,140,0.0,5.0,69,0.00,,,0.00,meteohub,2013-01-11 17:37:00,
2013-01-11 09:42:00,45.7,35.8,30.29,SSW,212,1.0,5.0,68,0.00,,,0.00,meteohub,2013-01-11 17:42:00,
2013-01-11 09:47:00,45.9,36.0,30.29,SSW,194,4.0,5.0,68,0.00,,,0.00,meteohub,2013-01-11 17:47:00,
2013-01-11 09:52:00,45.9,36.3,30.29,SSW,211,1.0,4.0,69,0.00,,,0.00,meteohub,2013-01-11 17:52:00,
2013-01-11 09:57:00,45.7,36.1,30.29,SE,146,3.0,5.0,69,0.00,,,0.00,meteohub,2013-01-11 17:57:00,
2013-01-11 10:02:00,45.9,36.3,30.30,SSE,156,4.0,5.0,69,0.00,,,0.00,meteohub,2013-01-11 18:02:00,
2013-01-11 10:07:00,45.9,36.3,30.30,NE,55,0.0,5.0,69,0.00,,,0.00,meteohub,2013-01-11 18:07:00,
2013-01-11 10:12:00,45.9,36.3,30.30,South,177,0.0,5.0,69,0.00,,,0.00,meteohub,2013-01-11 18:12:00,
2013-01-11 10:17:00,46.0,36.1,30.30,SE,140,1.0,5.0,68,0.00,,,0.00,meteohub,2013-01-11 18:17:00,
2013-01-11 10:22:00,46.0,36.1,30.30,ENE,76,1.0,3.0,68,0.00,,,0.00,meteohub,2013-01-11 18:22:00,
2013-01-11 10:27:00,46.2,36.0,30.29,SW,222,2.0,3.0,67,0.00,,,0.00,meteohub,2013-01-11 18:27:00,
2013-01-11 10:32:00,46.6,35.8,30.29,South,184,2.0,4.0,66,0.00,,,0.00,meteohub,2013-01-11 18:32:00,
2013-01-11 10:37:00,46.8,36.0,30.29,West,260,3.0,5.0,66,0.00,,,0.00,meteohub,2013-01-11 18:37:00,
2013-01-11 10:42:00,46.9,36.1,30.29,SW,221,2.0,5.0,66,0.00,,,0.00,meteohub,2013-01-11 18:42:00,
2013-01-11 10:47:00,47.1,36.3,30.28,South,177,3.0,5.0,66,0.00,,,0.00,meteohub,2013-01-11 18:47:00,
2013-01-11 10:52:00,47.3,36.5,30.28,SW,232,0.0,5.0,66,0.00,,,0.00,meteohub,2013-01-11 18:52:00,
2013-01-11 10:57:00,47.3,36.1,30.28,SSE,149,3.0,5.0,65,0.00,,,0.00,meteohub,2013-01-11 18:57:00,
2013-01-11 11:02:00,47.5,36.7,30.28,South,172,0.0,5.0,66,0.00,,,0.00,meteohub,2013-01-11 19:02:00,
2013-01-11 11:07:00,47.5,36.3,30.27,ENE,75,2.0,5.0,65,0.00,,,0.00,meteohub,2013-01-11 19:07:00,
2013-01-11 11:12:00,47.5,36.7,30.27,ESE,112,2.0,5.0,66,0.00,,,0.00,meteohub,2013-01-11 19:12:00,
2013-01-11 11:17:00,47.7,36.9,30.26,East,100,1.0,5.0,66,0.00,,,0.00,meteohub,2013-01-11 19:17:00,
2013-01-11 11:22:00,47.8,36.7,30.26,SW,230,1.0,5.0,65,0.00,,,0.00,meteohub,2013-01-11 19:22:00,
2013-01-11 11:27:00,48.2,37.0,30.26,ENE,74,2.0,6.0,65,0.00,,,0.00,meteohub,2013-01-11 19:27:00,
2013-01-11 11:32:00,48.4,37.2,30.25,NNW,327,1.0,6.0,65,0.00,,,0.00,meteohub,2013-01-11 19:32:00,
2013-01-11 11:37:00,48.4,37.2,30.25,East,90,3.0,5.0,65,0.00,,,0.00,meteohub,2013-01-11 19:37:00,
2013-01-11 11:42:00,48.4,37.2,30.25,West,281,3.0,7.0,65,0.00,,,0.00,meteohub,2013-01-11 19:42:00,
2013-01-11 11:47:00,48.0,36.9,30.25,SE,133,1.0,7.0,65,0.00,,,0.00,meteohub,2013-01-11 19:47:00,
2013-01-11 11:52:00,48.4,37.2,30.25,SSW,203,3.0,7.0,65,0.00,,,0.00,meteohub,2013-01-11 19:52:00,
2013-01-11 11:57:00,48.4,36.7,30.24,ESE,117,0.0,7.0,64,0.00,,,0.00,meteohub,2013-01-11 19:57:00,
2013-01-11 12:02:00,48.4,37.2,30.24,East,82,5.0,6.0,65,0.00,,,0.00,meteohub,2013-01-11 20:02:00,
2013-01-11 12:07:00,48.9,37.8,30.24,SW,226,1.0,6.0,65,0.00,,,0.00,meteohub,2013-01-11 20:07:00,
2013-01-11 12:12:00,49.1,37.4,30.23,East,91,2.0,8.0,64,0.00,,,0.00,meteohub,2013-01-11 20:12:00,
2013-01-11 12:17:00,49.3,37.6,30.23,ENE,57,3.0,8.0,64,0.00,,,0.00,meteohub,2013-01-11 20:17:00,
2013-01-11 12:22:00,49.5,37.8,30.23,WSW,246,2.0,8.0,64,0.00,,,0.00,meteohub,2013-01-11 20:22:00,
2013-01-11 12:27:00,49.8,38.5,30.22,NE,53,2.0,8.0,65,0.00,,,0.00,meteohub,2013-01-11 20:27:00,
2013-01-11 12:32:00,50.5,38.5,30.22,NE,34,2.0,7.0,63,0.00,,,0.00,meteohub,2013-01-11 20:32:00,
2013-01-11 12:37:00,50.4,37.8,30.22,SW,225,3.0,7.0,62,0.00,,,0.00,meteohub,2013-01-11 20:37:00,
2013-01-11 12:42:00,50.0,38.3,30.22,SE,126,0.0,6.0,64,0.00,,,0.00,meteohub,2013-01-11 20:42:00,
2013-01-11 12:47:00,49.8,38.8,30.22,SE,130,7.0,7.0,66,0.00,,,0.00,meteohub,2013-01-11 20:47:00,
2013-01-11 12:52:00,50.4,39.0,30.21,West,272,2.0,8.0,65,0.00,,,0.00,meteohub,2013-01-11 20:52:00,
2013-01-11 12:57:00,50.4,38.7,30.21,West,277,2.0,8.0,64,0.00,,,0.00,meteohub,2013-01-11 20:57:00,
2013-01-11 13:02:00,50.7,38.7,30.21,WSW,250,3.0,10.0,63,0.00,,,0.00,meteohub,2013-01-11 21:02:00,
2013-01-11 13:07:00,51.1,38.1,30.21,WNW,302,4.0,10.0,61,0.00,,,0.00,meteohub,2013-01-11 21:07:00,
2013-01-11 13:12:00,51.4,39.7,30.21,WNW,288,4.0,10.0,64,0.00,,,0.00,meteohub,2013-01-11 21:12:00,
2013-01-11 13:17:00,51.1,39.7,30.21,NNW,340,3.0,9.0,65,0.00,,,0.00,meteohub,2013-01-11 21:17:00,
2013-01-11 13:22:00,51.3,40.3,30.20,NW,308,2.0,12.0,66,0.00,,,0.00,meteohub,2013-01-11 21:22:00,
2013-01-11 13:27:00,52.0,40.6,30.20,NW,306,1.0,12.0,65,0.00,,,0.00,meteohub,2013-01-11 21:27:00,
2013-01-11 13:32:00,52.0,40.1,30.20,WNW,298,6.0,8.0,64,0.00,,,0.00,meteohub,2013-01-11 21:32:00,
2013-01-11 13:37:00,51.8,40.8,30.20,NW,322,10.0,13.0,66,0.00,,,0.00,meteohub,2013-01-11 21:37:00,
2013-01-11 13:42:00,51.8,40.8,30.19,NW,325,6.0,13.0,66,0.00,,,0.00,meteohub,2013-01-11 21:42:00,
2013-01-11 13:47:00,52.0,41.4,30.19,WSW,244,8.0,13.0,67,0.00,,,0.00,meteohub,2013-01-11 21:47:00,
2013-01-11 13:52:00,52.5,41.9,30.19,WNW,300,4.0,13.0,67,0.00,,,0.00,meteohub,2013-01-11 21:52:00,
2013-01-11 13:57:00,52.9,41.0,30.19,NNW,340,8.0,13.0,64,0.00,,,0.00,meteohub,2013-01-11 21:57:00,
2013-01-11 14:02:00,52.3,41.4,30.19,West,264,7.0,15.0,66,0.00,,,0.00,meteohub,2013-01-11 22:02:00,
2013-01-11 14:07:00,52.5,41.5,30.19,NW,324,7.0,15.0,66,0.00,,,0.00,meteohub,2013-01-11 22:07:00,
2013-01-11 14:12:00,52.9,41.9,30.19,WNW,283,3.0,15.0,66,0.00,,,0.00,meteohub,2013-01-11 22:12:00,
2013-01-11 14:17:00,53.1,41.5,30.19,WNW,290,3.0,12.0,65,0.00,,,0.00,meteohub,2013-01-11 22:17:00,
2013-01-11 14:22:00,52.9,41.4,30.19,West,278,9.0,12.0,65,0.00,,,0.00,meteohub,2013-01-11 22:22:00,
2013-01-11 14:27:00,52.5,41.5,30.18,NNW,327,8.0,12.0,66,0.00,,,0.00,meteohub,2013-01-11 22:27:00,
2013-01-11 14:32:00,52.5,42.3,30.18,NW,318,5.0,14.0,68,0.00,,,0.00,meteohub,2013-01-11 22:32:00,
2013-01-11 14:37:00,52.5,42.3,30.18,WNW,296,10.0,14.0,68,0.00,,,0.00,meteohub,2013-01-11 22:37:00,
2013-01-11 14:42:00,52.5,42.3,30.18,WNW,300,6.0,14.0,68,0.00,,,0.00,meteohub,2013-01-11 22:42:00,
2013-01-11 14:47:00,52.3,42.1,30.18,NNW,331,4.0,13.0,68,0.00,,,0.00,meteohub,2013-01-11 22:47:00,
2013-01-11 14:52:00,52.0,42.4,30.18,WNW,299,5.0,14.0,70,0.00,,,0.00,meteohub,2013-01-11 22:52:00,
2013-01-11 14:57:00,52.0,42.4,30.18,West,271,5.0,14.0,70,0.00,,,0.00,meteohub,2013-01-11 22:57:00,
2013-01-11 15:02:00,51.8,42.3,30.18,NNW,344,6.0,14.0,70,0.00,,,0.00,meteohub,2013-01-11 23:02:00,
2013-01-11 15:07:00,51.6,42.4,30.18,NE,39,8.0,15.0,71,0.00,,,0.00,meteohub,2013-01-11 23:07:00,
2013-01-11 15:12:00,51.4,41.9,30.18,WNW,287,5.0,15.0,70,0.00,,,0.00,meteohub,2013-01-11 23:12:00,
2013-01-11 15:17:00,51.4,42.4,30.18,West,269,9.0,15.0,71,0.00,,,0.00,meteohub,2013-01-11 23:17:00,
2013-01-11 15:22:00,51.3,41.9,30.18,NNW,335,10.0,14.0,70,0.00,,,0.00,meteohub,2013-01-11 23:22:00,
2013-01-11 15:27:00,51.1,42.1,30.18,West,278,10.0,14.0,71,0.00,,,0.00,meteohub,2013-01-11 23:27:00,
2013-01-11 15:32:00,51.3,42.6,30.18,WNW,294,4.0,13.0,72,0.00,,,0.00,meteohub,2013-01-11 23:32:00,
2013-01-11 15:37:00,51.3,42.3,30.18,NNE,20,8.0,13.0,71,0.00,,,0.00,meteohub,2013-01-11 23:37:00,
2013-01-11 15:42:00,51.3,42.3,30.18,WNW,302,5.0,14.0,71,0.00,,,0.00,meteohub,2013-01-11 23:42:00,
2013-01-11 15:47:00,51.3,41.9,30.18,WNW,303,3.0,14.0,70,0.00,,,0.00,meteohub,2013-01-11 23:47:00,
2013-01-11 15:52:00,51.3,42.6,30.18,WNW,294,6.0,13.0,72,0.00,,,0.00,meteohub,2013-01-11 23:52:00,
2013-01-11 15:57:00,51.3,41.9,30.18,WSW,248,13.0,13.0,70,0.00,,,0.00,meteohub,2013-01-11 23:57:00,
2013-01-11 16:02:00,50.9,41.9,30.18,East,84,6.0,13.0,71,0.00,,,0.00,meteohub,2013-01-12 00:02:00,
2013-01-11 16:07:00,51.1,42.1,30.18,NNE,28,5.0,13.0,71,0.00,,,0.00,meteohub,2013-01-12 00:07:00,
2013-01-11 16:12:00,50.9,42.3,30.18,NW,320,6.0,13.0,72,0.00,,,0.00,meteohub,2013-01-12 00:12:00,
2013-01-11 16:17:00,50.7,42.1,30.17,NW,318,2.0,12.0,72,0.00,,,0.00,meteohub,2013-01-12 00:17:00,
2013-01-11 16:22:00,51.1,42.4,30.17,WNW,294,3.0,12.0,72,0.00,,,0.00,meteohub,2013-01-12 00:22:00,
2013-01-11 16:27:00,51.3,42.6,30.17,SW,234,4.0,11.0,72,0.00,,,0.00,meteohub,2013-01-12 00:27:00,
2013-01-11 16:32:00,51.3,42.3,30.17,WNW,295,3.0,12.0,71,0.00,,,0.00,meteohub,2013-01-12 00:32:00,
2013-01-11 16:37:00,51.1,42.4,30.17,North,351,4.0,12.0,72,0.00,,,0.00,meteohub,2013-01-12 00:37:00,
2013-01-11 16:42:00,51.1,42.4,30.17,ENE,65,2.0,12.0,72,0.00,,,0.00,meteohub,2013-01-12 00:42:00,
2013-01-11 16:47:00,50.9,42.3,30.17,ENE,70,3.0,9.0,72,0.00,,,0.00,meteohub,2013-01-12 00:47:00,
2013-01-11 16:52:00,50.5,41.9,30.17,WNW,299,2.0,9.0,72,0.00,,,0.00,meteohub,2013-01-12 00:52:00,
2013-01-11 16:57:00,50.5,42.3,30.17,WNW,299,2.0,7.0,73,0.00,,,0.00,meteohub,2013-01-12 00:57:00,
2013-01-11 17:02:00,50.4,42.1,30.17,NNW,344,4.0,7.0,73,0.00,,,0.00,meteohub,2013-01-12 01:02:00,
2013-01-11 17:07:00,50.2,41.9,30.17,South,173,3.0,7.0,73,0.00,,,0.00,meteohub,2013-01-12 01:07:00,
2013-01-11 17:12:00,50.2,41.9,30.17,South,173,3.0,7.0,73,0.00,,,0.00,meteohub,2013-01-12 01:12:00,
2013-01-11 17:17:00,49.8,41.9,30.17,North,-999,-999.0,6.0,74,0.00,,,0.00,meteohub,2013-01-12 01:17:00,
2013-01-11 17:22:00,49.6,41.7,30.17,WNW,283,6.0,6.0,74,0.00,,,0.00,meteohub,2013-01-12 01:22:00,
2013-01-11 17:27:00,49.6,41.7,30.17,NW,304,4.0,8.0,74,0.00,,,0.00,meteohub,2013-01-12 01:27:00,
2013-01-11 17:32:00,49.5,41.9,30.17,WNW,292,6.0,8.0,75,0.00,,,0.00,meteohub,2013-01-12 01:32:00,
2013-01-11 17:37:00,49.5,41.9,30.17,WNW,303,4.0,10.0,75,0.00,,,0.00,meteohub,2013-01-12 01:37:00,
2013-01-11 17:42:00,49.3,41.7,30.17,West,267,4.0,10.0,75,0.00,,,0.00,meteohub,2013-01-12 01:42:00,
2013-01-11 17:47:00,49.3,41.7,30.17,NW,309,6.0,10.0,75,0.00,,,0.00,meteohub,2013-01-12 01:47:00,
2013-01-11 17:52:00,49.1,41.5,30.17,West,275,8.0,9.0,75,0.00,,,0.00,meteohub,2013-01-12 01:52:00,
2013-01-11 17:57:00,49.1,41.5,30.17,WNW,283,4.0,9.0,75,0.00,,,0.00,meteohub,2013-01-12 01:57:00,
2013-01-11 18:02:00,48.9,41.0,30.17,West,275,2.0,9.0,74,0.00,,,0.00,meteohub,2013-01-12 02:02:00,
2013-01-11 18:07:00,48.7,41.2,30.18,WNW,295,1.0,8.0,75,0.00,,,0.00,meteohub,2013-01-12 02:07:00,
2013-01-11 18:12:00,48.7,41.2,30.18,West,279,2.0,8.0,75,0.00,,,0.00,meteohub,2013-01-12 02:12:00,
2013-01-11 18:17:00,48.6,41.0,30.17,NE,36,1.0,8.0,75,0.00,,,0.00,meteohub,2013-01-12 02:17:00,
2013-01-11 18:22:00,48.6,41.0,30.17,WNW,283,0.0,8.0,75,0.00,,,0.00,meteohub,2013-01-12 02:22:00,
2013-01-11 18:27:00,48.4,40.8,30.18,WNW,303,1.0,7.0,75,0.00,,,0.00,meteohub,2013-01-12 02:27:00,
2013-01-11 18:32:00,48.4,40.8,30.17,NW,312,3.0,7.0,75,0.00,,,0.00,meteohub,2013-01-12 02:32:00,
2013-01-11 18:37:00,48.4,40.8,30.18,WNW,284,2.0,6.0,75,0.00,,,0.00,meteohub,2013-01-12 02:37:00,
2013-01-11 18:42:00,48.2,40.6,30.18,WNW,283,2.0,6.0,75,0.00,,,0.00,meteohub,2013-01-12 02:42:00,
2013-01-11 18:47:00,48.0,40.5,30.18,NW,314,2.0,6.0,75,0.00,,,0.00,meteohub,2013-01-12 02:47:00,
2013-01-11 18:52:00,48.0,40.5,30.18,NNW,340,2.0,7.0,75,0.00,,,0.00,meteohub,2013-01-12 02:52:00,
2013-01-11 18:57:00,48.0,40.5,30.18,West,277,3.0,7.0,75,0.00,,,0.00,meteohub,2013-01-12 02:57:00,
2013-01-11 19:02:00,48.0,40.5,30.18,ENE,71,2.0,7.0,75,0.00,,,0.00,meteohub,2013-01-12 03:02:00,
2013-01-11 19:07:00,48.0,40.5,30.18,ENE,65,1.0,6.0,75,0.00,,,0.00,meteohub,2013-01-12 03:07:00,
2013-01-11 19:12:00,48.0,40.1,30.17,NNE,27,4.0,6.0,74,0.00,,,0.00,meteohub,2013-01-12 03:12:00,
2013-01-11 19:17:00,48.0,40.1,30.17,NE,47,1.0,6.0,74,0.00,,,0.00,meteohub,2013-01-12 03:17:00,
2013-01-11 19:22:00,48.0,40.1,30.17,West,268,3.0,6.0,74,0.00,,,0.00,meteohub,2013-01-12 03:22:00,
2013-01-11 19:27:00,48.0,40.1,30.17,WSW,244,1.0,5.0,74,0.00,,,0.00,meteohub,2013-01-12 03:27:00,
2013-01-11 19:32:00,48.0,40.1,30.17,WNW,294,0.0,3.0,74,0.00,,,0.00,meteohub,2013-01-12 03:32:00,
2013-01-11 19:37:00,48.0,39.7,30.17,WNW,295,1.0,3.0,73,0.00,,,0.00,meteohub,2013-01-12 03:37:00,
2013-01-11 19:42:00,47.7,39.4,30.17,WNW,294,0.0,2.0,73,0.00,,,0.00,meteohub,2013-01-12 03:42:00,
2013-01-11 19:47:00,47.5,39.2,30.17,NE,44,3.0,3.0,73,0.00,,,0.00,meteohub,2013-01-12 03:47:00,
2013-01-11 19:52:00,47.8,39.6,30.17,ENE,59,1.0,4.0,73,0.00,,,0.00,meteohub,2013-01-12 03:52:00,
2013-01-11 19:57:00,47.8,39.6,30.17,ESE,117,1.0,4.0,73,0.00,,,0.00,meteohub,2013-01-12 03:57:00,
2013-01-11 20:02:00,47.8,39.6,30.18,SW,225,1.0,4.0,73,0.00,,,0.00,meteohub,2013-01-12 04:02:00,
2013-01-11 20:07:00,47.8,39.6,30.18,WSW,238,1.0,3.0,73,0.00,,,0.00,meteohub,2013-01-12 04:07:00,
2013-01-11 20:12:00,47.7,39.0,30.18,East,86,1.0,3.0,72,0.00,,,0.00,meteohub,2013-01-12 04:12:00,
2013-01-11 20:17:00,47.7,39.4,30.18,ENE,59,2.0,2.0,73,0.00,,,0.00,meteohub,2013-01-12 04:17:00,
2013-01-11 20:22:00,47.7,39.4,30.18,ESE,119,2.0,4.0,73,0.00,,,0.00,meteohub,2013-01-12 04:22:00,
2013-01-11 20:27:00,47.7,39.7,30.18,ENE,57,1.0,4.0,74,0.00,,,0.00,meteohub,2013-01-12 04:27:00,
2013-01-11 20:32:00,47.8,39.9,30.19,NE,36,1.0,8.0,74,0.00,,,0.00,meteohub,2013-01-12 04:32:00,
2013-01-11 20:37:00,47.8,39.9,30.19,ENE,60,2.0,8.0,74,0.00,,,0.00,meteohub,2013-01-12 04:37:00,
2013-01-11 20:42:00,47.8,39.9,30.19,NW,325,1.0,8.0,74,0.00,,,0.00,meteohub,2013-01-12 04:42:00,
2013-01-11 20:47:00,47.8,39.9,30.19,West,279,1.0,5.0,74,0.00,,,0.00,meteohub,2013-01-12 04:47:00,
2013-01-11 20:52:00,47.7,39.7,30.19,NE,45,1.0,4.0,74,0.00,,,0.00,meteohub,2013-01-12 04:52:00,
2013-01-11 21:02:00,47.7,40.5,30.20,NNW,337,1.0,5.0,76,0.00,,,0.00,meteohub,2013-01-12 05:02:00,
2013-01-11 21:12:00,46.8,40.3,30.19,ENE,67,2.0,8.0,78,0.00,,,0.00,meteohub,2013-01-12 05:12:00,
2013-01-11 21:17:00,46.6,40.5,30.19,ESE,109,0.0,5.0,79,0.00,,,0.00,meteohub,2013-01-12 05:17:00,
2013-01-11 21:22:00,46.4,40.3,30.19,NW,304,2.0,4.0,79,0.00,,,0.00,meteohub,2013-01-12 05:22:00,
2013-01-11 21:27:00,46.2,40.5,30.19,WNW,295,1.0,4.0,80,0.00,,,0.00,meteohub,2013-01-12 05:27:00,
2013-01-11 21:32:00,46.2,40.6,30.20,ENE,63,1.0,4.0,81,0.00,,,0.00,meteohub,2013-01-12 05:32:00,
2013-01-11 21:37:00,47.7,41.7,30.20,North,355,5.0,5.0,80,0.00,,,0.00,meteohub,2013-01-12 05:37:00,
2013-01-11 21:42:00,47.5,41.9,30.20,NNW,336,0.0,8.0,81,0.00,,,0.00,meteohub,2013-01-12 05:42:00,
2013-01-11 21:47:00,47.5,41.9,30.20,NNW,332,0.0,8.0,81,0.00,,,0.00,meteohub,2013-01-12 05:47:00,
2013-01-11 21:52:00,47.7,42.1,30.21,NW,308,4.0,8.0,81,0.00,,,0.00,meteohub,2013-01-12 05:52:00,
2013-01-11 21:57:00,47.5,41.5,30.21,NNW,342,1.0,8.0,80,0.00,,,0.00,meteohub,2013-01-12 05:57:00,
2013-01-11 22:02:00,47.5,41.5,30.21,NW,309,0.0,8.0,80,0.00,,,0.00,meteohub,2013-01-12 06:02:00,
2013-01-11 22:07:00,47.5,41.4,30.21,WNW,293,0.0,7.0,79,0.00,,,0.00,meteohub,2013-01-12 06:07:00,
2013-01-11 22:12:00,47.5,41.0,30.21,NW,304,0.0,4.0,78,0.00,,,0.00,meteohub,2013-01-12 06:12:00,
2013-01-11 22:17:00,47.5,41.0,30.21,NNW,339,0.0,5.0,78,0.00,,,0.00,meteohub,2013-01-12 06:17:00,
2013-01-11 22:22:00,47.5,40.6,30.21,West,281,0.0,5.0,77,0.00,,,0.00,meteohub,2013-01-12 06:22:00,
2013-01-11 22:32:00,47.1,40.3,30.21,WNW,294,0.0,3.0,77,0.00,,,0.00,meteohub,2013-01-12 06:32:00,
2013-01-11 22:37:00,47.1,39.9,30.21,West,281,0.0,3.0,76,0.00,,,0.00,meteohub,2013-01-12 06:37:00,
2013-01-11 22:42:00,47.1,40.3,30.21,West,281,0.0,2.0,77,0.00,,,0.00,meteohub,2013-01-12 06:42:00,
2013-01-11 22:47:00,47.5,40.3,30.21,North,355,0.0,4.0,76,0.00,,,0.00,meteohub,2013-01-12 06:47:00,
2013-01-11 22:52:00,47.5,40.3,30.22,WNW,290,1.0,4.0,76,0.00,,,0.00,meteohub,2013-01-12 06:52:00,
2013-01-11 22:57:00,47.7,40.1,30.22,West,281,0.0,5.0,75,0.00,,,0.00,meteohub,2013-01-12 06:57:00,
2013-01-11 23:02:00,47.7,40.1,30.22,North,0,0.0,7.0,75,0.00,,,0.00,meteohub,2013-01-12 07:02:00,
2013-01-11 23:07:00,47.7,40.1,30.22,NNW,342,1.0,7.0,75,0.00,,,0.00,meteohub,2013-01-12 07:07:00,
2013-01-11 23:12:00,47.5,39.6,30.22,North,5,6.0,7.0,74,0.00,,,0.00,meteohub,2013-01-12 07:12:00,
2013-01-11 23:17:00,47.1,39.6,30.22,NNW,338,1.0,7.0,75,0.00,,,0.00,meteohub,2013-01-12 07:17:00,
2013-01-11 23:22:00,46.9,39.7,30.22,North,355,6.0,11.0,76,0.00,,,0.00,meteohub,2013-01-12 07:22:00,
2013-01-11 23:27:00,46.9,39.7,30.22,NNW,347,2.0,11.0,76,0.00,,,0.00,meteohub,2013-01-12 07:27:00,
2013-01-11 23:32:00,46.9,40.1,30.22,NW,312,0.0,10.0,77,0.00,,,0.00,meteohub,2013-01-12 07:32:00,
2013-01-11 23:37:00,46.9,40.5,30.22,NW,312,2.0,9.0,78,0.00,,,0.00,meteohub,2013-01-12 07:37:00,
2013-01-11 23:42:00,46.9,40.5,30.22,North,350,1.0,9.0,78,0.00,,,0.00,meteohub,2013-01-12 07:42:00,
2013-01-11 23:47:00,46.8,41.0,30.22,NW,311,3.0,9.0,80,0.00,,,0.00,meteohub,2013-01-12 07:47:00,
2013-01-11 23:52:00,46.6,40.8,30.22,NW,323,0.0,8.0,80,0.00,,,0.00,meteohub,2013-01-12 07:52:00,
2013-01-11 23:57:00,46.8,41.2,30.22,NNW,336,3.0,8.0,81,0.00,,,0.00,meteohub,2013-01-12 07:57:00,